Regional Weather Roundup
Issued by NWS

Home | Current Version | Previous Version | Graphics & Text | Print | Product List | Glossary On
Versions: 1 2 3 4 5 6 7 8 9 10 11 12 13 14 15 16 17 18 19 20 21 22 23 24 25 26 27 28 29 30 31 32 33 34 35 36 37 38 39 40 41 42 43 44 45 46 47 48 49 50
000
ASUS43 KOAX 250610
RWRNE

WEATHER ROUNDUP FOR NEBRASKA
NATIONAL WEATHER SERVICE OMAHA NE
1200 AM CST THU DEC 25 2014

NOTES: SATELLITE DATA IS BEING USED TO AUGMENT CLOUD COVER ABOVE
       12000 FEET.
       "FAIR" INDICATES FEW OR NO CLOUDS BELOW 12,000 FEET WITH NO
       SIGNIFICANT WEATHER AND/OR OBSTRUCTIONS TO VISIBILITY.

  * THESE STATIONS DO NOT REPORT WEATHER SUCH AS RAIN...SNOW OR FOG.

NEZ001>004-019>022-054>056-250700-
NEBRASKA PANHANDLE

CITY           SKY/WX    TMP DP  RH WIND       PRES   REMARKS
SCOTTSBLUFF    CLOUDY    37  25  61 S7        29.45F WCI  32
6HR MIN TEMP:  31; 6HR MAX TEMP:  42;

ALLIANCE       CLOUDY    28  23  81 S6        29.45F WCI  22
6HR MIN TEMP:  28; 6HR MAX TEMP:  35;

CHADRON        CLOUDY    28  22  78 S5        29.44F WCI  23
6HR MIN TEMP:  24; 6HR MAX TEMP:  35;

KIMBALL        CLOUDY    32  24  71 SW3       29.46S
SIDNEY         CLOUDY    29  22  75 SW3       29.47S
6HR MIN TEMP:  27; 6HR MAX TEMP:  31;

$$

NEZ057>060-069>072-079>082-250700-
SOUTHWEST NEBRASKA

CITY           SKY/WX    TMP DP  RH WIND       PRES   REMARKS
NORTH PLATTE   CLOUDY    33  22  63 SW6       29.51F WCI  28
6HR MIN TEMP:  28; 6HR MAX TEMP:  35;

IMPERIAL       CLOUDY    36  21  54 S9        29.49F WCI  29
6HR MIN TEMP:  32; 6HR MAX TEMP:  36;

LEXINGTON      MOCLDY    35  26  70 CALM      29.55S
MCCOOK         CLOUDY    34  21  59 S3        29.54F
6HR MIN TEMP:  31; 6HR MAX TEMP:  38;

OGALLALA       CLOUDY    24  22  92 CALM      29.50S
$$

NEZ005>010-023>029-035>040-094-250700-
NORTH CENTRAL NEBRASKA

CITY           SKY/WX    TMP DP  RH WIND       PRES   REMARKS
VALENTINE      CLOUDY    30  26  85 SW5       29.46S WCI  25
6HR MIN TEMP:  27; 6HR MAX TEMP:  31;

AINSWORTH      CLOUDY    33  26  76 SW6       29.47F WCI  28
BROKEN BOW     CLOUDY    31  25  78 S3        29.51F
6HR MIN TEMP:  28; 6HR MAX TEMP:  37;

O`NEILL        PTCLDY    28  24  84 S9        29.50S WCI  19
ORD            MOCLDY    31  24  75 SE3       29.53S
6HR MIN TEMP:  28; 6HR MAX TEMP:  33;

THEDFORD       CLOUDY    35  26  68 SW5       29.49F WCI  31
$$

NEZ041-046>049-061>064-073>077-083>087-250700-
SOUTH CENTRAL NEBRASKA

CITY           SKY/WX    TMP DP  RH WIND       PRES   REMARKS
GRAND ISLAND   CLOUDY    35  20  54 S12       29.57F WCI  27
6HR MIN TEMP:  31; 6HR MAX TEMP:  35;

AURORA         MOCLDY    32  23  71 SW9       29.58F WCI  24
HASTINGS       CLOUDY    33  20  58 S10       29.58F WCI  25
6HR MIN TEMP:  32; 6HR MAX TEMP:  36;

HEBRON         PTCLDY    33  24  67 S13G20    29.65S WCI  24
HOLDREGE       PTCLDY    31  20  65 S8        29.56F WCI  23
KEARNEY *      MOCLDY    30  19  64 S9        29.56F WCI  22
YORK           PTCLDY    32  25  74 SW9       29.61S WCI  24
$$

NEZ011>018-030>034-042>045-250700-
NORTHEAST NEBRASKA

CITY           SKY/WX    TMP DP  RH WIND       PRES   REMARKS
NORFOLK        CLEAR     30  23  75 S14       29.56F WCI  19
6HR MIN TEMP:  23; 6HR MAX TEMP:  31;

ALBION         PTCLDY    29  23  78 CALM      29.57S
BLAIR          CLEAR     30  27  91 S10G17    29.64F WCI  21
COLUMBUS *     CLEAR     30  21  69 S8        29.61S WCI  23
FREMONT        CLEAR     30  28  92 SE10      29.62F WCI  21
TEKAMAH        CLEAR     30  27  88 SE9       29.65F WCI  22
6HR MIN TEMP:  30; 6HR MAX TEMP:  31;

WAYNE          CLEAR     27  24  91 S7        29.58F WCI  19
$$

NEZ050>053-065>068-078-088>093-250700-
SOUTHEAST NEBRASKA

CITY           SKY/WX    TMP DP  RH WIND       PRES   REMARKS
LINCOLN        CLEAR     27  23  85 S8        29.65F WCI  19
6HR MIN TEMP:  26; 6HR MAX TEMP:  28;

OMAHA EPPLEY   CLEAR     29  27  92 S13       29.68F WCI  19
6HR MIN TEMP:  29; 6HR MAX TEMP:  31;

BEATRICE       CLEAR     32  26  81 S12       29.66F WCI  23
FALLS CITY     CLEAR     30  27  88 S9        29.74S WCI  22
6HR MIN TEMP:  30; 6HR MAX TEMP:  32;

NEBRASKA CITY  CLEAR     29  29 100 S12       29.69F WCI  19
PLATTSMOUTH    CLEAR     29  27  91 S13       29.68S WCI  19
$$

NEZ044-045-051>053-067-250700-
OMAHA AREA

CITY           SKY/WX    TMP DP  RH WIND       PRES   REMARKS
OMAHA EPPLEY   CLEAR     29  27  92 S13       29.68F WCI  19
6HR MIN TEMP:  29; 6HR MAX TEMP:  31;

BLAIR          CLEAR     30  27  91 S10G17    29.64F WCI  21
FREMONT        CLEAR     30  28  92 SE10      29.62F WCI  21
MILLARD        CLEAR     28  26  91 SE7       29.67F WCI  21
OFFUTT AFB     CLEAR     28  27  94 S8        29.68F WCI  20
PLATTSMOUTH    CLEAR     29  27  91 S13       29.68S WCI  19
WAHOO          FAIR      28  25  91 SE8       29.64F WCI  19
$$


USA.gov is the U.S. government's official web portal to all federal, state and local government web resources and services.